[[{"header":{"parameterUnit":"m.s-1","parameterCategory":1,"la1":30.2991,"la2":30.254,"lo1":-89.0895,"lo2":-89.0444,"dy":0.0017,"dx":0.0017,"nx":28,"ny":28,"refTime":"2025-08-19T09:00:00:Z","depth":0,"parameterNumber":2,"parameterNumberName":"U-component_of_WINDS"},"data":[0,0,0,0,0,0,0,0,0,0,0,0,0,0,0,0,0,0,0,0,0,0,0,0,0,0,0,0,0,0,0,0,0,0,0,0,0,0,0,0,0,0,0,0,0,0,0,0,0,0,0,0,0,0,0,0,0,0,2.4212,2.4213,0,2.4333,2.4334,2.4335,2.4393,2.4392,2.4392,2.4392,2.4514,2.4517,2.4521,0,0,0,0,0,0,0,0,0,0,0,0,0,2.403,2.4033,2.4212,2.4214,2.4215,2.4332,2.4334,2.4336,2.4393,2.4392,2.4392,2.4392,2.4513,2.4517,2.4521,0,0,0,0,0,0,0,0,0,0,0,0,0,2.4125,2.4034,2.4212,2.4258,2.4263,2.4332,2.4334,2.4336,2.4393,2.4392,2.4392,2.4392,2.4512,2.4517,2.4521,2.4554,0,0,2.4537,2.4539,0,0,0,0,0,0,0,0,2.412,2.4132,2.4249,2.4255,2.4261,2.4348,2.4314,2.4409,2.4393,2.4343,2.4392,2.4392,2.4459,2.4468,2.4491,2.4559,2.4565,2.4537,2.454,2.4542,2.4543,0,0,0,0,0,0,0,2.4113,2.4127,2.426,2.4251,2.4258,2.4272,2.4285,2.4333,2.44,2.4348,2.4352,2.4366,2.4462,2.4486,2.4494,2.4566,2.4537,2.4541,2.4544,2.4546,2.4668,2.4668,0,0,0,0,0,0,2.4099,2.4121,2.4256,2.4263,2.4189,2.4275,2.429,2.432,2.44,2.4412,2.4366,2.4368,2.4477,2.4488,2.4498,2.4542,2.4542,2.4547,2.4549,2.4668,2.4668,2.4668,0,0,0,0,0,0,2.4095,2.4111,2.4251,2.4194,2.4212,2.4278,2.4311,2.4322,2.4346,2.4413,2.4425,2.4378,2.4478,2.4491,2.454,2.4547,2.4549,2.4553,2.4667,2.4668,2.4668,2.4629,0,0,0,0,0,0,2.409,2.4109,2.4122,2.4193,2.4215,2.4291,2.4311,2.4325,2.4355,2.4359,2.4428,2.4439,2.4479,2.4532,2.4545,2.4554,2.4557,2.4667,2.4668,2.4668,2.463,2.4628,2.4626,0,0,0,0,0,2.4083,2.4105,2.4122,2.4138,2.4233,2.4291,2.4303,2.4349,2.4355,2.4369,2.4412,2.4437,2.4544,2.4536,2.4551,2.4562,2.4667,2.4667,2.4668,2.463,2.4628,2.4626,0,0,0,0,0,0,2.4032,2.4116,2.4135,2.4182,2.4229,2.43,2.4319,2.4345,2.439,2.4392,2.4446,2.4461,2.4505,2.4538,2.4528,2.4598,2.4608,2.4611,2.4574,2.4572,2.4571,2.4562,2.4561,0,0,0,0,0,2.4027,2.4067,2.4138,2.4172,2.4195,2.4252,2.4279,2.431,2.4361,2.4381,2.4428,2.4475,2.452,2.4548,2.4593,2.4635,2.4651,2.4649,2.4647,2.4646,2.4648,2.4673,2.4674,2.467,2.467,2.467,0,0,2.4015,2.4066,2.4088,2.4163,2.4203,2.4243,2.4269,2.431,2.4341,2.4387,2.4436,2.4472,2.4528,2.4574,2.4596,2.4603,2.4653,2.4646,2.4644,2.4648,2.4674,2.4674,2.4674,2.4671,2.4671,2.4671,0,0,2.4015,2.4058,2.4091,2.4131,2.4192,2.423,2.4238,2.4306,2.4332,2.4382,2.4418,2.4454,2.453,2.4569,2.4599,2.4614,2.4639,2.4627,2.4618,2.4642,2.4642,2.4642,2.4648,2.465,2.4629,2.4629,2.4629,0,2.3993,2.4056,2.4105,2.4145,2.4177,2.4221,2.4256,2.4292,2.4363,2.4384,2.4391,2.4487,2.4529,2.4584,2.4588,2.461,2.4621,2.462,2.4638,2.4639,2.464,2.4646,2.4648,2.4627,2.4628,2.4628,2.4628,0,2.4026,2.4069,2.4089,2.4158,2.4192,2.4229,2.4283,2.4311,2.4339,2.4377,2.4427,2.4479,2.4535,2.455,2.4577,2.461,2.4612,2.4628,2.4639,2.4638,2.4645,2.4647,2.4625,2.4625,2.4626,2.4626,0,0,2.3998,2.4094,2.41,2.4133,2.4203,2.4237,2.4275,2.4331,2.4355,2.4403,2.4436,2.4499,2.4515,2.4548,2.4581,2.4602,2.4611,2.4615,2.4617,2.4613,2.465,2.4638,2.464,2.4628,2.4629,2.4629,2.4645,0,2.4008,2.408,2.4125,2.4179,2.4219,2.4262,2.4296,2.4343,2.4379,2.4418,2.4458,2.4502,2.4519,2.4539,2.4562,2.4605,2.4619,2.4604,2.466,2.4661,2.4644,2.4643,2.4631,2.4644,2.4648,2.4649,2.4649,0,2.4029,2.4077,2.4135,2.4202,2.422,2.425,2.4304,2.4341,2.4395,2.442,2.4458,2.4491,2.4533,2.4541,2.46,2.4589,2.4615,2.4639,2.4641,2.4648,2.4655,2.4651,2.4649,2.4651,2.4654,2.4653,2.4653,0,2.4002,2.4081,2.4127,2.4153,2.4231,2.4251,2.4285,2.4339,2.4369,2.4417,2.4438,2.4489,2.4517,2.4557,2.4602,2.4604,2.4657,2.4668,2.4679,2.4678,2.4688,2.4687,2.4691,2.4704,2.4704,2.4704,2.4704,0,2.4009,2.4043,2.4116,2.4143,2.4183,2.4234,2.4271,2.4309,2.4356,2.4392,2.4432,2.4464,2.4523,2.4562,2.4598,2.4642,2.4654,2.4676,2.4685,2.4672,2.467,2.469,2.469,2.4704,2.4704,2.4704,2.4704,0,2.3986,2.4036,2.4088,2.4159,2.4178,2.4203,2.4264,2.4292,2.4331,2.4375,2.4389,2.4449,2.4498,2.4548,2.4613,2.4637,2.468,2.4692,2.4662,2.4667,2.4675,2.4674,2.4692,2.4697,2.4706,2.4706,2.4706,0,2.3987,2.4014,2.4088,2.4115,2.4148,2.4191,2.4223,2.4275,2.4306,2.437,2.439,2.4442,2.4486,2.4562,2.4611,2.4662,2.4676,2.4679,2.4684,2.4671,2.4677,2.4674,2.4678,2.4677,2.4677,2.4676,2.4676,0,2.3983,2.4007,2.4052,2.4105,2.4142,2.4187,2.4232,2.4252,2.4313,2.4346,2.4397,2.4431,2.4498,2.4549,2.4606,2.464,2.4668,2.4674,2.468,2.4667,2.4648,2.4659,2.4657,2.4674,2.4674,2.4674,2.4674,2.4674,2.3972,2.3999,2.4055,2.4104,2.4144,2.4186,2.4217,2.426,2.4303,2.4362,2.439,2.4441,2.4495,2.4573,2.4607,2.4648,2.4655,2.4663,2.4664,2.4666,2.4663,2.4642,2.4658,2.4658,2.4658,2.4658,2.4658,0,2.3971,2.401,2.4054,2.4117,2.4156,2.418,2.4232,2.4262,2.4306,2.4354,2.4397,2.4456,2.4505,2.4559,2.4612,2.4634,2.4648,2.4646,2.4645,2.4653,2.4653,2.4643,2.4634,2.4634,2.4634,2.4634,2.4634,2.4634,2.3975,2.4021,2.4052,2.4118,2.4157,2.4207,2.4235,2.4274,2.4313,2.4377,2.4418,2.4453,2.4504,2.4561,2.4608,2.4622,2.464,2.4634,2.4652,2.4651,2.4653,2.4654,2.4646,2.4637,2.4637,2.4649,2.4649,2.4649]},{"header":{"parameterUnit":"m.s-1","parameterCategory":1,"la1":30.2991,"la2":30.254,"lo1":-89.0895,"lo2":-89.0444,"dy":0.0017,"dx":0.0017,"nx":28,"ny":28,"refTime":"2025-08-19T09:00:00:Z","depth":0,"parameterNumber":3,"parameterNumberName":"V-component_of_WINDS"},"data":[0,0,0,0,0,0,0,0,0,0,0,0,0,0,0,0,0,0,0,0,0,0,0,0,0,0,0,0,0,0,0,0,0,0,0,0,0,0,0,0,0,0,0,0,0,0,0,0,0,0,0,0,0,0,0,0,0,0,3.1173,3.1174,0,3.1267,3.1268,3.1269,3.1282,3.1281,3.128,3.1279,3.1367,3.137,3.1373,0,0,0,0,0,0,0,0,0,0,0,0,0,3.0998,3.1001,3.1173,3.1174,3.1175,3.1266,3.1268,3.1269,3.1282,3.1281,3.128,3.1279,3.1366,3.137,3.1374,0,0,0,0,0,0,0,0,0,0,0,0,0,3.108,3.1002,3.1173,3.1193,3.1196,3.1266,3.1268,3.1269,3.1282,3.1281,3.128,3.1278,3.1365,3.137,3.1374,3.1428,0,0,3.1389,3.1391,0,0,0,0,0,0,0,0,3.1076,3.1087,3.1189,3.1192,3.1195,3.1261,3.1238,3.1322,3.1282,3.1249,3.1279,3.1278,3.1333,3.134,3.136,3.1433,3.1436,3.1389,3.1392,3.1394,3.1395,0,0,0,0,0,0,0,3.107,3.1083,3.121,3.119,3.1194,3.1195,3.1205,3.1254,3.1296,3.1252,3.1253,3.1264,3.1334,3.1355,3.1362,3.1438,3.1389,3.1393,3.1396,3.1398,3.1558,3.156,0,0,0,0,0,0,3.1062,3.1078,3.1207,3.1213,3.1131,3.1199,3.1211,3.1241,3.1296,3.1303,3.1265,3.1265,3.1348,3.1357,3.1365,3.1432,3.1394,3.1398,3.1401,3.1557,3.1559,3.156,0,0,0,0,0,0,3.1058,3.1073,3.1203,3.1146,3.1162,3.1203,3.1238,3.1244,3.1265,3.1306,3.1313,3.128,3.1347,3.1359,3.1413,3.1436,3.14,3.1405,3.1555,3.1557,3.1559,3.1567,0,0,0,0,0,0,3.1053,3.1072,3.1095,3.1146,3.1166,3.1252,3.1239,3.1246,3.1274,3.1274,3.1322,3.1329,3.1347,3.1406,3.1418,3.1441,3.1408,3.1553,3.1556,3.1559,3.1565,3.1569,3.1573,0,0,0,0,0,3.1047,3.1092,3.1096,3.1111,3.1196,3.1253,3.1264,3.1287,3.1276,3.1298,3.1324,3.1327,3.1431,3.1411,3.1425,3.145,3.1552,3.1555,3.1558,3.1563,3.1568,3.1573,0,0,0,0,0,0,3.1039,3.1099,3.1104,3.1168,3.1206,3.1255,3.1284,3.1291,3.1331,3.1329,3.1353,3.1363,3.1417,3.1438,3.1416,3.1505,3.149,3.1496,3.1489,3.1494,3.1498,3.1492,3.1412,0,0,0,0,0,3.1045,3.109,3.1138,3.119,3.1209,3.1243,3.1269,3.1283,3.1322,3.1338,3.1368,3.1403,3.1444,3.147,3.151,3.1568,3.1578,3.1591,3.1595,3.1598,3.1604,3.1635,3.1642,3.1571,3.1571,3.1571,0,0,3.1058,3.1096,3.1122,3.1189,3.122,3.1263,3.1256,3.1302,3.1334,3.1344,3.1398,3.1421,3.1462,3.1518,3.1545,3.1538,3.1625,3.1603,3.1605,3.1608,3.1639,3.1646,3.1652,3.1573,3.1573,3.1572,0,0,3.1103,3.1137,3.1183,3.1215,3.1263,3.1285,3.1296,3.1345,3.1362,3.1417,3.1425,3.1461,3.1531,3.156,3.1584,3.1639,3.1642,3.165,3.1671,3.1702,3.1707,3.1712,3.1732,3.1739,3.1655,3.1655,3.1655,0,3.1112,3.118,3.1205,3.1252,3.128,3.1294,3.134,3.1368,3.1425,3.1443,3.1435,3.1523,3.1552,3.1615,3.1628,3.1647,3.1659,3.1646,3.1705,3.171,3.1715,3.1734,3.1741,3.1656,3.1656,3.1656,3.1656,0,3.1188,3.1235,3.1266,3.1325,3.1356,3.1402,3.1432,3.146,3.1471,3.1494,3.1548,3.1583,3.163,3.1645,3.1656,3.171,3.1704,3.1701,3.1686,3.1722,3.174,3.1748,3.1657,3.1657,3.1657,3.1656,0,0,3.1232,3.1304,3.1315,3.1342,3.1395,3.143,3.1475,3.1524,3.1547,3.1585,3.1623,3.1681,3.1678,3.1705,3.1718,3.1744,3.1786,3.1737,3.1738,3.1745,3.1847,3.185,3.1858,3.1788,3.1789,3.179,3.1843,0,3.1284,3.1369,3.1393,3.1463,3.1505,3.1518,3.1557,3.1592,3.1614,3.1651,3.1673,3.1715,3.1707,3.1724,3.1751,3.1775,3.1806,3.1771,3.1821,3.1823,3.1812,3.1868,3.1871,3.192,3.185,3.1852,3.1853,0,3.1356,3.1399,3.1474,3.1522,3.1541,3.1576,3.1622,3.1658,3.1697,3.1711,3.1741,3.1751,3.1796,3.1779,3.184,3.1816,3.1837,3.1852,3.1854,3.186,3.184,3.1875,3.1936,3.1943,3.1864,3.1863,3.1862,0,3.1382,3.1457,3.1512,3.1534,3.1591,3.1615,3.1639,3.1678,3.1705,3.1744,3.1761,3.1803,3.1827,3.1858,3.1879,3.1864,3.1938,3.1922,3.1949,3.1948,3.1965,3.1963,3.203,3.1977,3.1977,3.1977,3.1977,0,3.1437,3.1483,3.1525,3.1558,3.1609,3.1634,3.1682,3.1706,3.174,3.1777,3.1788,3.1822,3.1847,3.1883,3.1899,3.1947,3.1957,3.1968,3.1972,3.1968,3.1966,3.1983,3.198,3.1979,3.1978,3.1978,3.1978,0,3.1475,3.1505,3.1565,3.1615,3.1628,3.1663,3.1704,3.1735,3.1757,3.1803,3.1815,3.1848,3.1892,3.1916,3.1969,3.1979,3.2033,3.2035,3.2021,3.2023,3.2048,3.2046,3.2128,3.2139,3.2078,3.2079,3.2079,0,3.1509,3.1545,3.1598,3.1625,3.1651,3.1693,3.1722,3.1747,3.1775,3.1822,3.1848,3.1892,3.193,3.1997,3.2025,3.2065,3.2068,3.2094,3.2074,3.2068,3.2069,3.2067,3.207,3.2097,3.2098,3.2098,3.2099,0,3.1566,3.1579,3.1622,3.1669,3.1704,3.1741,3.1778,3.1798,3.1829,3.186,3.1906,3.1935,3.199,3.2033,3.2076,3.2098,3.2103,3.2105,3.2113,3.211,3.21,3.2106,3.2031,3.2103,3.2102,3.2102,3.2102,3.2102,3.1604,3.1636,3.1679,3.1725,3.1756,3.179,3.1823,3.185,3.1889,3.1938,3.1949,3.1997,3.2034,3.2092,3.2115,3.2151,3.2146,3.2158,3.2161,3.2164,3.2165,3.2094,3.2158,3.2158,3.2158,3.2158,3.2158,0,3.1662,3.1691,3.1733,3.1786,3.1822,3.1826,3.1866,3.1895,3.1938,3.1973,3.201,3.2062,3.2103,3.2134,3.2176,3.2199,3.2202,3.2209,3.2208,3.2213,3.2167,3.2156,3.2206,3.2206,3.2206,3.2206,3.2206,3.2206,3.1697,3.1752,3.177,3.1839,3.1866,3.1916,3.1939,3.197,3.1998,3.2056,3.2092,3.2113,3.2145,3.2189,3.2227,3.2235,3.225,3.2256,3.2264,3.2221,3.2216,3.2211,3.2201,3.2259,3.2259,3.2307,3.2308,3.2308]}]]